| time (UTC) | temp F | wind direction | speed knots | gust knots | rain 1hr in | rain 24hr in | rain mn in | humidity % | barometer mb |
| 20260508180032 | 59 | 0 | 0.0 | 9.6 | 0.00 | 0.00 | 0.00 | 30 | 1009.5 |
| 20260508175514 | 59 | 205 | 4.3 | 9.6 | 0.00 | 0.00 | 0.00 | 31 | 1009.7 |
| 20260508175014 | 60 | 207 | 2.6 | 7.8 | 0.00 | 0.00 | 0.00 | 31 | 1009.7 |
| 20260508174527 | 59 | 0 | 2.6 | 10.4 | 0.00 | 0.00 | 0.00 | 30 | 1009.8 |
| 20260508174014 | 59 | 195 | 5.2 | 10.4 | 0.00 | 0.00 | 0.00 | 31 | 1010.0 |
| 20260508173513 | 60 | 250 | 1.7 | 7.0 | 0.00 | 0.00 | 0.00 | 31 | 1010.0 |
| 20260508173030 | 59 | 248 | 0.9 | 10.4 | 0.00 | 0.00 | 0.00 | 30 | 1010.0 |
| 20260508172513 | 59 | 278 | 0.9 | 10.4 | 0.00 | 0.00 | 0.00 | 31 | 1010.1 |
| 20260508172013 | 58 | 254 | 5.2 | 10.4 | 0.00 | 0.00 | 0.00 | 30 | 1010.4 |
| 20260508171536 | 59 | 175 | 4.3 | 10.4 | 0.00 | 0.00 | 0.00 | 29 | 1010.4 |
| 20260508171014 | 59 | 184 | 1.7 | 7.0 | 0.00 | 0.00 | 0.00 | 31 | 1010.4 |
| 20260508170514 | 59 | 276 | 0.9 | 6.1 | 0.00 | 0.00 | 0.00 | 31 | 1010.3 |
| 20260508170030 | 58 | 0 | 0.9 | 9.6 | 0.00 | 0.00 | 0.00 | 31 | 1010.4 |
| 20260508165515 | 58 | 249 | 5.2 | 9.6 | 0.00 | 0.00 | 0.00 | 31 | 1010.7 |
| 20260508165014 | 58 | 216 | 1.7 | 6.1 | 0.00 | 0.00 | 0.00 | 32 | 1010.6 |
| 20260508164531 | 58 | 184 | 0.9 | 5.2 | 0.00 | 0.00 | 0.00 | 33 | 1010.6 |
| 20260508164014 | 57 | 172 | 1.7 | 7.8 | 0.00 | 0.00 | 0.00 | 32 | 1010.7 |
| 20260508163514 | 57 | 237 | 3.5 | 7.8 | 0.00 | 0.00 | 0.00 | 33 | 1010.8 |
| 20260508163030 | 58 | 232 | 1.7 | 5.2 | 0.00 | 0.00 | 0.00 | 33 | 1010.9 |
| 20260508162514 | 58 | 0 | 0.9 | 7.8 | 0.00 | 0.00 | 0.00 | 30 | 1010.9 |
| 20260508162013 | 58 | 163 | 1.7 | 8.7 | 0.00 | 0.00 | 0.00 | 32 | 1010.9 |
| 20260508161533 | 57 | 284 | 3.5 | 9.6 | 0.00 | 0.00 | 0.00 | 33 | 1011.0 |
| 20260508161015 | 57 | 234 | 2.6 | 9.6 | 0.00 | 0.00 | 0.00 | 31 | 1010.9 |
| 20260508160514 | 56 | 218 | 3.5 | 9.6 | 0.00 | 0.00 | 0.00 | 31 | 1011.0 |
| 20260508160031 | 56 | 238 | 2.6 | 9.6 | 0.00 | 0.00 | 0.00 | 32 | 1011.1 |
| 20260508155519 | 56 | 233 | 3.5 | 8.7 | 0.00 | 0.00 | 0.00 | 31 | 1011.2 |
| 20260508155015 | 56 | 217 | 3.5 | 8.7 | 0.00 | 0.00 | 0.00 | 32 | 1011.3 |
| 20260508154530 | 56 | 211 | 1.7 | 7.0 | 0.00 | 0.00 | 0.00 | 33 | 1011.2 |
| 20260508154014 | 57 | 170 | 2.6 | 6.1 | 0.00 | 0.00 | 0.00 | 35 | 1011.2 |
| 20260508153516 | 57 | 175 | 0.0 | 3.5 | 0.00 | 0.00 | 0.00 | 35 | 1011.2 |
| 20260508153034 | 56 | 264 | 1.7 | 5.2 | 0.00 | 0.00 | 0.00 | 34 | 1011.2 |
| 20260508152516 | 55 | 0 | 0.9 | 5.2 | 0.00 | 0.00 | 0.00 | 37 | 1011.3 |
| 20260508152018 | 55 | 228 | 2.6 | 9.6 | 0.00 | 0.00 | 0.00 | 36 | 1011.4 |
| 20260508151530 | 55 | 258 | 1.7 | 9.6 | 0.00 | 0.00 | 0.00 | 35 | 1011.4 |
| 20260508151014 | 55 | 281 | 0.9 | 5.2 | 0.00 | 0.00 | 0.00 | 41 | 1011.4 |
| 20260508150518 | 54 | 9 | 2.6 | 5.2 | 0.00 | 0.00 | 0.00 | 38 | 1011.4 |
| 20260508150032 | 55 | 60 | 0.9 | 6.1 | 0.00 | 0.00 | 0.00 | 36 | 1011.4 |
| 20260508145515 | 55 | 239 | 0.9 | 6.1 | 0.00 | 0.00 | 0.00 | 40 | 1011.4 |
| 20260508145016 | 55 | 212 | 1.7 | 7.8 | 0.00 | 0.00 | 0.00 | 39 | 1011.5 |
| 20260508144536 | 55 | 221 | 1.7 | 7.8 | 0.00 | 0.00 | 0.00 | 39 | 1011.5 |
| 20260508144015 | 55 | 226 | 0.9 | 4.3 | 0.00 | 0.00 | 0.00 | 42 | 1011.5 |
| 20260508143518 | 55 | 231 | 0.9 | 3.5 | 0.00 | 0.00 | 0.00 | 43 | 1011.4 |
| 20260508143029 | 54 | 253 | 0.0 | 4.3 | 0.00 | 0.00 | 0.00 | 45 | 1011.6 |
| 20260508142516 | 54 | 246 | 0.9 | 5.2 | 0.00 | 0.00 | 0.00 | 44 | 1011.6 |
| 20260508142015 | 54 | 182 | 1.7 | 5.2 | 0.00 | 0.00 | 0.00 | 41 | 1011.5 |
| 20260508141533 | 55 | 266 | 1.7 | 5.2 | 0.00 | 0.00 | 0.00 | 42 | 1011.7 |
| 20260508141015 | 55 | 228 | 0.0 | 2.6 | 0.00 | 0.00 | 0.00 | 48 | 1011.8 |
| 20260508140514 | 55 | 235 | 0.9 | 2.6 | 0.00 | 0.00 | 0.00 | 45 | 1011.9 |
| 20260508140032 | 55 | 184 | 0.0 | 0.9 | 0.00 | 0.00 | 0.00 | 47 | 1011.9 |
| 20260508135515 | 54 | 0 | 0.0 | 1.7 | 0.00 | 0.00 | 0.00 | 48 | 1012.0 |
| 20260508135014 | 54 | 0 | 0.0 | 1.7 | 0.00 | 0.00 | 0.00 | 47 | 1012.0 |
| 20260508134532 | 55 | 0 | 0.0 | 0.9 | 0.00 | 0.00 | 0.00 | 49 | 1012.0 |
| 20260508134016 | 55 | 160 | 0.0 | 0.9 | 0.00 | 0.00 | 0.00 | 48 | 1012.0 |
| 20260508133519 | 54 | 0 | 0.0 | 1.7 | 0.00 | 0.00 | 0.00 | 52 | 1012.0 |
| 20260508133032 | 52 | 0 | 0.0 | 1.7 | 0.00 | 0.00 | 0.00 | 54 | 1012.0 |
| 20260508132515 | 51 | 0 | 0.0 | 1.7 | 0.00 | 0.00 | 0.00 | 55 | 1012.0 |
| 20260508132014 | 51 | 0 | 0.0 | 1.7 | 0.00 | 0.00 | 0.00 | 59 | 1012.1 |
| 20260508131534 | 51 | 0 | 0.0 | 1.7 | 0.00 | 0.00 | 0.00 | 57 | 1012.1 |
| 20260508131015 | 51 | 157 | 0.0 | 1.7 | 0.00 | 0.00 | 0.00 | 58 | 1012.1 |
| 20260508130518 | 50 | 0 | 0.0 | 1.7 | 0.00 | 0.00 | 0.00 | 60 | 1012.1 |
| 20260508130033 | 49 | 0 | 0.9 | 1.7 | 0.00 | 0.00 | 0.00 | 60 | 1012.1 |
| 20260508125514 | 49 | 210 | 0.0 | 1.7 | 0.00 | 0.00 | 0.00 | 65 | 1012.0 |
| 20260508125016 | 48 | 0 | 0.0 | 3.5 | 0.00 | 0.00 | 0.00 | 68 | 1012.0 |
| 20260508124530 | 47 | 207 | 0.9 | 3.5 | 0.00 | 0.00 | 0.00 | 67 | 1012.0 |
| 20260508124017 | 48 | 190 | 0.9 | 3.5 | 0.00 | 0.00 | 0.00 | 69 | 1012.0 |
| 20260508123517 | 47 | 187 | 1.7 | 2.6 | 0.00 | 0.00 | 0.00 | 72 | 1012.0 |
| 20260508123030 | 47 | 180 | 0.0 | 1.7 | 0.00 | 0.00 | 0.00 | 75 | 1011.9 |
| 20260508122515 | 46 | 0 | 0.0 | 1.7 | 0.00 | 0.00 | 0.00 | 77 | 1011.7 |
| 20260508122016 | 46 | 149 | 0.9 | 1.7 | 0.00 | 0.00 | 0.00 | 77 | 1011.7 |
| 20260508121529 | 45 | 180 | 1.7 | 1.7 | 0.00 | 0.00 | 0.00 | 77 | 1011.8 |
| 20260508121016 | 45 | 198 | 0.0 | 0.9 | 0.00 | 0.00 | 0.00 | 79 | 1011.6 |
| 20260508120516 | 45 | 0 | 0.0 | 0.9 | 0.00 | 0.00 | 0.00 | 81 | 1011.5 |
| 20260508120041 | 45 | 0 | 0.0 | 0.9 | 0.00 | 0.00 | 0.00 | 80 | 1011.5 |
| 20260508115514 | 45 | 0 | 0.0 | 0.9 | 0.00 | 0.00 | 0.00 | 81 | 1011.5 |
| 20260508115017 | 44 | 0 | 0.0 | 0.0 | 0.00 | 0.00 | 0.00 | 86 | 1011.5 |
| 20260508114532 | 44 | 0 | 0.0 | 0.0 | 0.00 | 0.00 | 0.00 | 90 | 1011.4 |
| 20260508114014 | 43 | 0 | 0.0 | 0.0 | 0.00 | 0.00 | 0.00 | 91 | 1011.4 |
| 20260508113514 | 42 | 0 | 0.0 | 0.0 | 0.00 | 0.00 | 0.00 | 91 | 1011.3 |
| 20260508113041 | 41 | 0 | 0.0 | 0.0 | 0.00 | 0.00 | 0.00 | 91 | 1011.2 |
| 20260508112517 | 41 | 0 | 0.0 | 0.0 | 0.00 | 0.00 | 0.00 | 93 | 1011.2 |
| 20260508112016 | 40 | 0 | 0.0 | 0.0 | 0.00 | 0.00 | 0.00 | 93 | 1011.2 |
| 20260508111545 | 40 | 0 | 0.0 | 0.0 | 0.00 | 0.00 | 0.00 | 94 | 1011.2 |
| 20260508111014 | 39 | 0 | 0.0 | 0.0 | 0.00 | 0.00 | 0.00 | 94 | 1011.2 |
| 20260508110517 | 38 | 0 | 0.0 | 0.0 | 0.00 | 0.00 | 0.00 | 94 | 1011.2 |
| 20260508110033 | 38 | 0 | 0.0 | 0.0 | 0.00 | 0.00 | 0.00 | 94 | 1011.1 |
| 20260508105516 | 38 | 0 | 0.0 | 0.0 | 0.00 | 0.00 | 0.00 | 94 | 1011.1 |
| 20260508105020 | 37 | 0 | 0.0 | 0.0 | 0.00 | 0.00 | 0.00 | 94 | 1011.1 |
| 20260508104530 | 37 | 0 | 0.0 | 0.0 | 0.00 | 0.00 | 0.00 | 94 | 1011.1 |
| 20260508104013 | 36 | 0 | 0.0 | 0.0 | 0.00 | 0.00 | 0.00 | 94 | 1011.1 |
| 20260508103517 | 36 | 0 | 0.0 | 0.0 | 0.00 | 0.00 | 0.00 | 94 | 1011.1 |
| 20260508103030 | 37 | 0 | 0.0 | 0.0 | 0.00 | 0.00 | 0.00 | 94 | 1011.1 |
| 20260508102516 | 37 | 0 | 0.0 | 0.0 | 0.00 | 0.00 | 0.00 | 93 | 1011.2 |
| 20260508102016 | 37 | 0 | 0.0 | 0.9 | 0.00 | 0.00 | 0.00 | 93 | 1011.1 |
| 20260508101533 | 37 | 0 | 0.0 | 0.9 | 0.00 | 0.00 | 0.00 | 93 | 1011.1 |
| 20260508101013 | 37 | 333 | 0.0 | 0.9 | 0.00 | 0.00 | 0.00 | 93 | 1011.2 |
| 20260508100515 | 37 | 0 | 0.0 | 0.0 | 0.00 | 0.00 | 0.00 | 93 | 1011.2 |
| 20260508100031 | 37 | 0 | 0.0 | 0.0 | 0.00 | 0.00 | 0.00 | 93 | 1011.2 |
| 20260508095514 | 37 | 0 | 0.0 | 0.9 | 0.00 | 0.00 | 0.00 | 92 | 1011.2 |
| 20260508095017 | 37 | 0 | 0.0 | 0.9 | 0.00 | 0.00 | 0.00 | 92 | 1011.3 |
| 20260508094531 | 37 | 0 | 0.0 | 0.9 | 0.00 | 0.00 | 0.00 | 92 | 1011.3 |
| 20260508094049 | 38 | 0 | 0.0 | 0.0 | 0.00 | 0.00 | 0.00 | 92 | 1011.4 |
| 20260508093513 | 38 | 0 | 0.0 | 0.0 | 0.00 | 0.00 | 0.00 | 92 | 1011.3 |
| 20260508093033 | 38 | 0 | 0.0 | 0.0 | 0.00 | 0.00 | 0.00 | 92 | 1011.4 |
| 20260508092515 | 38 | 0 | 0.0 | 0.0 | 0.00 | 0.00 | 0.00 | 91 | 1011.4 |
| 20260508092011 | 38 | 0 | 0.0 | 0.0 | 0.00 | 0.00 | 0.00 | 91 | 1011.4 |
| 20260508091536 | 38 | 0 | 0.0 | 0.0 | 0.00 | 0.00 | 0.00 | 91 | 1011.4 |
| 20260508091014 | 39 | 0 | 0.0 | 0.0 | 0.00 | 0.00 | 0.00 | 91 | 1011.4 |
| 20260508090512 | 39 | 169 | 0.0 | 0.0 | 0.00 | 0.00 | 0.00 | 91 | 1011.3 |
| 20260508090028 | 39 | 0 | 0.0 | 0.0 | 0.00 | 0.00 | 0.00 | 91 | 1011.4 |
| 20260508085513 | 39 | 0 | 0.0 | 0.0 | 0.00 | 0.00 | 0.00 | 90 | 1011.4 |
| 20260508085013 | 39 | 0 | 0.0 | 0.0 | 0.00 | 0.00 | 0.00 | 89 | 1011.4 |
| 20260508084530 | 39 | 0 | 0.0 | 0.0 | 0.00 | 0.00 | 0.00 | 89 | 1011.5 |
| 20260508084017 | 39 | 0 | 0.0 | 0.0 | 0.00 | 0.00 | 0.00 | 89 | 1011.5 |
| 20260508083512 | 39 | 0 | 0.0 | 0.0 | 0.00 | 0.00 | 0.00 | 88 | 1011.3 |
| 20260508083030 | 39 | 0 | 0.0 | 0.0 | 0.00 | 0.00 | 0.00 | 88 | 1011.4 |
| 20260508082514 | 39 | 0 | 0.0 | 0.0 | 0.00 | 0.00 | 0.00 | 87 | 1011.5 |
| 20260508082014 | 39 | 0 | 0.0 | 0.0 | 0.00 | 0.00 | 0.00 | 85 | 1011.4 |
| 20260508081543 | 40 | 0 | 0.0 | 0.0 | 0.00 | 0.00 | 0.00 | 86 | 1011.4 |
| 20260508081016 | 40 | 0 | 0.0 | 0.0 | 0.00 | 0.00 | 0.00 | 85 | 1011.5 |
| 20260508080518 | 40 | 169 | 0.0 | 0.9 | 0.00 | 0.00 | 0.00 | 85 | 1011.4 |
| 20260508080029 | 41 | 0 | 0.0 | 0.9 | 0.00 | 0.00 | 0.00 | 84 | 1011.4 |
| 20260508075514 | 41 | 131 | 0.0 | 0.9 | 0.00 | 0.00 | 0.00 | 83 | 1011.4 |
| 20260508075013 | 41 | 0 | 0.0 | 0.9 | 0.00 | 0.00 | 0.00 | 83 | 1011.4 |
| 20260508074532 | 41 | 0 | 0.0 | 0.0 | 0.00 | 0.00 | 0.00 | 82 | 1011.5 |
| 20260508074014 | 41 | 0 | 0.0 | 0.0 | 0.00 | 0.00 | 0.00 | 81 | 1011.3 |
| 20260508073514 | 41 | 0 | 0.0 | 0.0 | 0.00 | 0.00 | 0.00 | 80 | 1011.3 |
| 20260508073031 | 42 | 0 | 0.0 | 0.0 | 0.00 | 0.00 | 0.00 | 80 | 1011.2 |
| 20260508072513 | 42 | 0 | 0.0 | 0.9 | 0.00 | 0.00 | 0.00 | 79 | 1011.2 |
| 20260508072013 | 42 | 167 | 0.0 | 0.9 | 0.00 | 0.00 | 0.00 | 80 | 1011.2 |
| 20260508071530 | 42 | 112 | 0.0 | 0.9 | 0.00 | 0.00 | 0.00 | 80 | 1011.2 |
| 20260508071015 | 42 | 0 | 0.0 | 0.9 | 0.00 | 0.00 | 0.00 | 81 | 1011.3 |
| 20260508070514 | 42 | 125 | 0.0 | 0.9 | 0.00 | 0.00 | 0.00 | 80 | 1011.4 |
| 20260508070031 | 42 | 0 | 0.0 | 0.9 | 0.00 | 0.00 | 0.00 | 80 | 1011.5 |
| 20260508065518 | 42 | 354 | 0.0 | 1.7 | 0.00 | 0.00 | 0.00 | 80 | 1011.5 |
| 20260508065013 | 42 | 0 | 0.0 | 1.7 | 0.00 | 0.00 | 0.00 | 80 | 1011.4 |
| 20260508064531 | 42 | 75 | 0.0 | 3.5 | 0.00 | 0.00 | 0.00 | 79 | 1011.5 |
| 20260508064016 | 42 | 37 | 0.0 | 3.5 | 0.00 | 0.00 | 0.00 | 79 | 1011.6 |
| 20260508063516 | 42 | 345 | 1.7 | 3.5 | 0.00 | 0.00 | 0.00 | 79 | 1011.9 |
| 20260508063030 | 42 | 335 | 0.0 | 1.7 | 0.00 | 0.00 | 0.00 | 79 | 1011.7 |
| 20260508062514 | 43 | 1 | 0.0 | 1.7 | 0.00 | 0.00 | 0.00 | 77 | 1011.7 |
| 20260508062014 | 43 | 0 | 0.0 | 3.5 | 0.00 | 0.00 | 0.00 | 76 | 1011.8 |
| 20260508061530 | 43 | 346 | 0.9 | 3.5 | 0.00 | 0.00 | 0.00 | 76 | 1011.9 |
| 20260508061014 | 43 | 8 | 0.0 | 1.7 | 0.00 | 0.00 | 0.00 | 75 | 1011.7 |
| 20260508060519 | 43 | 358 | 0.0 | 0.9 | 0.00 | 0.00 | 0.00 | 73 | 1011.9 |
| 20260508060029 | 43 | 0 | 0.0 | 3.5 | 0.00 | 0.00 | 0.00 | 72 | 1012.0 |
| 20260508055514 | 43 | 347 | 0.0 | 6.1 | 0.00 | 0.00 | 0.00 | 71 | 1011.9 |
| 20260508055013 | 44 | 308 | 0.9 | 6.1 | 0.00 | 0.00 | 0.00 | 71 | 1011.6 |
| 20260508054530 | 44 | 103 | 3.5 | 6.1 | 0.00 | 0.00 | 0.00 | 69 | 1011.2 |
| 20260508054011 | 44 | 108 | 0.9 | 4.3 | 0.00 | 0.00 | 0.00 | 68 | 1012.0 |
| 20260508053515 | 44 | 331 | 0.9 | 4.3 | 0.00 | 0.00 | 0.00 | 67 | 1012.3 |
| 20260508053031 | 44 | 0 | 0.0 | 0.9 | 0.00 | 0.00 | 0.00 | 67 | 1011.8 |
| 20260508052517 | 44 | 0 | 0.0 | 0.9 | 0.00 | 0.00 | 0.00 | 67 | 1011.8 |
| 20260508052011 | 44 | 0 | 0.0 | 0.9 | 0.00 | 0.00 | 0.00 | 67 | 1011.8 |
| 20260508051534 | 44 | 0 | 0.0 | 0.9 | 0.00 | 0.00 | 0.00 | 68 | 1011.9 |
| 20260508051011 | 44 | 0 | 0.0 | 2.6 | 0.00 | 0.00 | 0.00 | 68 | 1012.0 |
| 20260508050516 | 44 | 357 | 0.9 | 3.5 | 0.00 | 0.00 | 0.00 | 67 | 1012.1 |
| 20260508050033 | 44 | 352 | 0.9 | 3.5 | 0.00 | 0.00 | 0.00 | 66 | 1012.1 |
| 20260508045515 | 44 | 25 | 0.0 | 2.6 | 0.00 | 0.00 | 0.00 | 67 | 1011.9 |
| 20260508045014 | 44 | 0 | 0.0 | 0.9 | 0.00 | 0.00 | 0.00 | 68 | 1012.0 |
| 20260508044528 | 44 | 0 | 0.0 | 1.7 | 0.00 | 0.00 | 0.00 | 69 | 1011.9 |
| 20260508044014 | 44 | 0 | 0.0 | 1.7 | 0.00 | 0.00 | 0.00 | 69 | 1012.0 |
| 20260508043514 | 43 | 0 | 0.0 | 1.7 | 0.00 | 0.00 | 0.00 | 73 | 1012.1 |
| 20260508043032 | 43 | 301 | 0.0 | 1.7 | 0.00 | 0.00 | 0.00 | 77 | 1012.1 |
| 20260508042515 | 43 | 347 | 0.0 | 0.9 | 0.00 | 0.00 | 0.00 | 75 | 1012.2 |
| 20260508042014 | 43 | 216 | 0.0 | 0.9 | 0.00 | 0.00 | 0.00 | 78 | 1012.1 |
| 20260508041534 | 43 | 0 | 0.0 | 0.0 | 0.00 | 0.00 | 0.00 | 76 | 1011.9 |
| 20260508041014 | 43 | 0 | 0.0 | 0.0 | 0.00 | 0.00 | 0.00 | 71 | 1011.7 |
| 20260508040514 | 44 | 0 | 0.0 | 0.0 | 0.00 | 0.00 | 0.00 | 70 | 1011.6 |
| 20260508040032 | 44 | 0 | 0.0 | 0.0 | 0.00 | 0.00 | 0.00 | 73 | 1011.6 |
| 20260508035517 | 44 | 0 | 0.0 | 0.0 | 0.00 | 0.00 | 0.00 | 73 | 1011.6 |
| 20260508035014 | 44 | 0 | 0.0 | 0.0 | 0.00 | 0.00 | 0.00 | 73 | 1011.5 |
| 20260508034534 | 45 | 0 | 0.0 | 0.0 | 0.00 | 0.00 | 0.00 | 73 | 1011.5 |
| 20260508034012 | 45 | 0 | 0.0 | 0.0 | 0.00 | 0.00 | 0.00 | 72 | 1011.5 |
| 20260508033513 | 45 | 0 | 0.0 | 0.0 | 0.00 | 0.00 | 0.00 | 71 | 1011.5 |
| 20260508033028 | 45 | 0 | 0.0 | 0.0 | 0.00 | 0.00 | 0.00 | 66 | 1011.4 |
| 20260508032513 | 45 | 0 | 0.0 | 0.0 | 0.00 | 0.00 | 0.00 | 67 | 1011.3 |
| 20260508032015 | 45 | 0 | 0.0 | 0.0 | 0.00 | 0.00 | 0.00 | 67 | 1011.4 |
| 20260508031532 | 45 | 0 | 0.0 | 0.0 | 0.00 | 0.00 | 0.00 | 68 | 1011.5 |
| 20260508031014 | 45 | 0 | 0.0 | 0.0 | 0.00 | 0.00 | 0.00 | 66 | 1011.5 |
| 20260508030513 | 45 | 0 | 0.0 | 0.0 | 0.00 | 0.00 | 0.00 | 65 | 1011.6 |
| 20260508030032 | 45 | 0 | 0.0 | 0.0 | 0.00 | 0.00 | 0.00 | 63 | 1011.7 |
| 20260508025513 | 45 | 0 | 0.0 | 0.0 | 0.00 | 0.00 | 0.00 | 61 | 1011.8 |
| 20260508025016 | 45 | 0 | 0.0 | 0.0 | 0.00 | 0.00 | 0.00 | 61 | 1011.9 |
| 20260508024532 | 45 | 0 | 0.0 | 0.0 | 0.00 | 0.00 | 0.00 | 62 | 1011.9 |
| 20260508024014 | 45 | 0 | 0.0 | 0.0 | 0.00 | 0.00 | 0.00 | 63 | 1012.0 |
| 20260508023514 | 45 | 0 | 0.0 | 0.0 | 0.00 | 0.00 | 0.00 | 63 | 1011.9 |
| 20260508023030 | 45 | 0 | 0.0 | 0.0 | 0.00 | 0.00 | 0.00 | 63 | 1011.9 |
| 20260508022513 | 45 | 0 | 0.0 | 0.9 | 0.00 | 0.00 | 0.00 | 61 | 1011.7 |
| 20260508022014 | 45 | 0 | 0.0 | 0.9 | 0.00 | 0.00 | 0.00 | 61 | 1011.9 |
| 20260508021531 | 46 | 169 | 0.0 | 0.9 | 0.00 | 0.00 | 0.00 | 59 | 1011.8 |
| 20260508021016 | 46 | 0 | 0.0 | 0.9 | 0.00 | 0.00 | 0.00 | 60 | 1011.8 |
| 20260508020514 | 46 | 0 | 0.0 | 0.9 | 0.00 | 0.00 | 0.00 | 59 | 1011.6 |
| 20260508020037 | 47 | 0 | 0.0 | 0.9 | 0.00 | 0.00 | 0.00 | 58 | 1011.6 |
| 20260508015515 | 47 | 0 | 0.0 | 0.9 | 0.00 | 0.00 | 0.00 | 57 | 1011.6 |
| 20260508015015 | 47 | 0 | 0.0 | 3.5 | 0.00 | 0.00 | 0.00 | 56 | 1011.7 |
| 20260508014529 | 47 | 263 | 0.0 | 3.5 | 0.00 | 0.00 | 0.00 | 55 | 1011.6 |
| 20260508014013 | 48 | 273 | 0.9 | 4.3 | 0.00 | 0.00 | 0.00 | 54 | 1011.6 |
| 20260508013514 | 48 | 292 | 0.9 | 6.1 | 0.00 | 0.00 | 0.00 | 54 | 1011.6 |
| 20260508013029 | 48 | 304 | 1.7 | 7.8 | 0.00 | 0.00 | 0.00 | 53 | 1011.6 |
| 20260508012512 | 48 | 266 | 0.9 | 7.8 | 0.00 | 0.00 | 0.00 | 52 | 1011.5 |
| 20260508012014 | 48 | 297 | 0.9 | 7.8 | 0.00 | 0.00 | 0.00 | 51 | 1011.4 |
| 20260508011530 | 49 | 306 | 0.0 | 3.5 | 0.00 | 0.00 | 0.00 | 50 | 1011.3 |
| 20260508011013 | 49 | 0 | 0.0 | 6.1 | 0.00 | 0.00 | 0.00 | 50 | 1011.3 |
| 20260508010512 | 49 | 317 | 0.9 | 6.1 | 0.00 | 0.00 | 0.00 | 49 | 1011.3 |
| 20260508010033 | 49 | 296 | 2.6 | 6.1 | 0.00 | 0.00 | 0.00 | 49 | 1011.2 |
| 20260508005513 | 49 | 0 | 0.9 | 3.5 | 0.00 | 0.00 | 0.00 | 49 | 1011.2 |
| 20260508005015 | 49 | 274 | 0.0 | 3.5 | 0.00 | 0.00 | 0.00 | 48 | 1011.1 |
| 20260508004530 | 50 | 0 | 0.0 | 3.5 | 0.00 | 0.00 | 0.00 | 47 | 1011.1 |
| 20260508004018 | 50 | 264 | 0.0 | 3.5 | 0.00 | 0.00 | 0.00 | 47 | 1011.0 |
| 20260508003513 | 50 | 0 | 0.0 | 5.2 | 0.00 | 0.00 | 0.00 | 46 | 1010.9 |
| 20260508003031 | 50 | 0 | 0.9 | 7.0 | 0.00 | 0.00 | 0.00 | 45 | 1011.0 |
| 20260508002516 | 51 | 300 | 2.6 | 7.8 | 0.00 | 0.00 | 0.00 | 45 | 1011.1 |
| 20260508002015 | 51 | 316 | 1.7 | 7.8 | 0.00 | 0.00 | 0.00 | 44 | 1011.1 |
| 20260508001535 | 51 | 264 | 1.7 | 7.0 | 0.00 | 0.00 | 0.00 | 44 | 1011.1 |
| 20260508001016 | 51 | 226 | 2.6 | 7.8 | 0.00 | 0.00 | 0.00 | 44 | 1011.1 |
| 20260508000517 | 51 | 218 | 1.7 | 8.7 | 0.00 | 0.00 | 0.00 | 44 | 1011.1 |
| 20260508000034 | 51 | 219 | 3.5 | 9.6 | 0.00 | 0.00 | 0.00 | 44 | 1011.0 |
| 20260507235522 | 51 | 283 | 2.6 | 9.6 | 0.00 | 0.00 | 0.00 | 44 | 1010.9 |
| 20260507235013 | 51 | 295 | 2.6 | 9.6 | 0.00 | 0.00 | 0.00 | 44 | 1010.7 |
| 20260507234539 | 51 | 255 | 1.7 | 6.1 | 0.00 | 0.00 | 0.00 | 43 | 1010.6 |
| 20260507234015 | 51 | 226 | 1.7 | 7.0 | 0.00 | 0.00 | 0.00 | 44 | 1010.6 |
| 20260507233517 | 51 | 0 | 2.6 | 7.0 | 0.00 | 0.00 | 0.00 | 44 | 1010.7 |
| 20260507233033 | 51 | 272 | 3.5 | 8.7 | 0.00 | 0.00 | 0.00 | 43 | 1010.8 |
| 20260507232517 | 51 | 272 | 1.7 | 9.6 | 0.00 | 0.00 | 0.00 | 43 | 1010.8 |
| 20260507232014 | 52 | 296 | 1.7 | 11.3 | 0.00 | 0.00 | 0.00 | 42 | 1010.8 |
| 20260507231529 | 52 | 276 | 5.2 | 11.3 | 0.00 | 0.00 | 0.00 | 41 | 1010.8 |
| 20260507231016 | 53 | 319 | 2.6 | 10.4 | 0.00 | 0.00 | 0.00 | 42 | 1010.8 |
| 20260507230516 | 53 | 290 | 2.6 | 10.4 | 0.00 | 0.00 | 0.00 | 41 | 1010.9 |
| 20260507230034 | 53 | 252 | 4.3 | 10.4 | 0.00 | 0.00 | 0.00 | 41 | 1010.7 |
| 20260507225516 | 52 | 277 | 4.3 | 10.4 | 0.00 | 0.00 | 0.00 | 42 | 1010.8 |
| 20260507225017 | 52 | 276 | 3.5 | 10.4 | 0.00 | 0.00 | 0.00 | 41 | 1010.8 |
| 20260507224534 | 52 | 290 | 3.5 | 10.4 | 0.00 | 0.00 | 0.00 | 42 | 1010.9 |
| 20260507224017 | 52 | 215 | 3.5 | 9.6 | 0.00 | 0.00 | 0.00 | 42 | 1010.9 |
| 20260507223514 | 52 | 272 | 2.6 | 8.7 | 0.00 | 0.00 | 0.00 | 43 | 1010.9 |
| 20260507223032 | 52 | 268 | 3.5 | 9.6 | 0.00 | 0.00 | 0.00 | 42 | 1010.9 |
| 20260507222517 | 52 | 233 | 4.3 | 9.6 | 0.00 | 0.00 | 0.00 | 42 | 1011.0 |
| 20260507222016 | 52 | 219 | 5.2 | 11.3 | 0.00 | 0.00 | 0.00 | 42 | 1011.0 |
| 20260507221530 | 52 | 233 | 4.3 | 15.6 | 0.00 | 0.00 | 0.00 | 43 | 1011.1 |
| 20260507221015 | 52 | 236 | 3.5 | 15.6 | 0.00 | 0.00 | 0.00 | 41 | 1011.1 |
| 20260507220516 | 53 | 299 | 5.2 | 15.6 | 0.00 | 0.00 | 0.00 | 40 | 1011.2 |
| 20260507220036 | 53 | 233 | 3.5 | 13.0 | 0.00 | 0.00 | 0.00 | 40 | 1011.0 |
| 20260507215520 | 53 | 311 | 4.3 | 10.4 | 0.00 | 0.00 | 0.00 | 41 | 1011.0 |
| 20260507215017 | 52 | 309 | 2.6 | 10.4 | 0.00 | 0.00 | 0.00 | 42 | 1011.0 |
| 20260507214530 | 52 | 353 | 2.6 | 10.4 | 0.00 | 0.00 | 0.00 | 43 | 1010.9 |
| 20260507214017 | 52 | 250 | 3.5 | 10.4 | 0.00 | 0.00 | 0.00 | 42 | 1010.9 |
| 20260507213519 | 52 | 253 | 3.5 | 8.7 | 0.00 | 0.00 | 0.00 | 42 | 1011.0 |
| 20260507213030 | 52 | 252 | 5.2 | 9.6 | 0.00 | 0.00 | 0.00 | 42 | 1011.0 |
| 20260507212511 | 52 | 285 | 4.3 | 9.6 | 0.00 | 0.00 | 0.00 | 42 | 1010.9 |
| 20260507212017 | 52 | 226 | 3.5 | 12.2 | 0.00 | 0.00 | 0.00 | 41 | 1010.9 |
| 20260507211529 | 52 | 291 | 3.5 | 12.2 | 0.00 | 0.00 | 0.00 | 41 | 1011.0 |
| 20260507211013 | 53 | 297 | 4.3 | 12.2 | 0.00 | 0.00 | 0.00 | 41 | 1011.0 |
| 20260507210518 | 53 | 288 | 3.5 | 15.6 | 0.00 | 0.00 | 0.00 | 40 | 1011.0 |
| 20260507210033 | 53 | 284 | 3.5 | 15.6 | 0.00 | 0.00 | 0.00 | 40 | 1011.0 |
| 20260507205514 | 53 | 245 | 5.2 | 15.6 | 0.00 | 0.00 | 0.00 | 39 | 1010.9 |
| 20260507205014 | 54 | 355 | 0.9 | 11.3 | 0.00 | 0.00 | 0.00 | 40 | 1010.9 |
| 20260507204529 | 53 | 257 | 4.3 | 11.3 | 0.00 | 0.00 | 0.00 | 40 | 1010.9 |
| 20260507204014 | 53 | 203 | 4.3 | 11.3 | 0.00 | 0.00 | 0.00 | 41 | 1011.0 |
| 20260507203516 | 53 | 284 | 4.3 | 10.4 | 0.00 | 0.00 | 0.00 | 41 | 1011.1 |
| 20260507203032 | 52 | 213 | 3.5 | 10.4 | 0.00 | 0.00 | 0.00 | 41 | 1011.0 |
| 20260507202513 | 52 | 311 | 2.6 | 10.4 | 0.00 | 0.00 | 0.00 | 41 | 1011.2 |
| 20260507202011 | 52 | 234 | 2.6 | 11.3 | 0.00 | 0.00 | 0.00 | 41 | 1011.3 |
| 20260507201531 | 52 | 217 | 4.3 | 13.9 | 0.00 | 0.00 | 0.00 | 40 | 1011.3 |
| 20260507201015 | 51 | 318 | 4.3 | 13.9 | 0.00 | 0.00 | 0.00 | 42 | 1011.3 |
| 20260507200514 | 51 | 304 | 5.2 | 17.4 | 0.00 | 0.00 | 0.00 | 41 | 1011.4 |
| 20260507200030 | 51 | 275 | 5.2 | 17.4 | 0.00 | 0.00 | 0.00 | 40 | 1011.4 |
| 20260507195514 | 51 | 229 | 5.2 | 17.4 | 0.00 | 0.00 | 0.00 | 40 | 1011.4 |
| 20260507195014 | 51 | 243 | 5.2 | 13.0 | 0.00 | 0.00 | 0.00 | 40 | 1011.5 |
| 20260507194533 | 51 | 266 | 4.3 | 12.2 | 0.00 | 0.00 | 0.00 | 41 | 1011.5 |
| 20260507194014 | 51 | 287 | 3.5 | 12.2 | 0.00 | 0.00 | 0.00 | 41 | 1011.5 |
| 20260507193516 | 52 | 314 | 2.6 | 12.2 | 0.00 | 0.00 | 0.00 | 41 | 1011.5 |
| 20260507193032 | 52 | 222 | 5.2 | 12.2 | 0.00 | 0.00 | 0.00 | 40 | 1011.5 |
| 20260507192515 | 52 | 266 | 7.0 | 13.9 | 0.00 | 0.00 | 0.00 | 40 | 1011.5 |
| 20260507192011 | 52 | 231 | 2.6 | 16.5 | 0.00 | 0.00 | 0.00 | 41 | 1011.4 |
| 20260507191529 | 52 | 258 | 7.0 | 16.5 | 0.00 | 0.00 | 0.00 | 41 | 1011.5 |
| 20260507191014 | 52 | 276 | 6.1 | 15.6 | 0.00 | 0.00 | 0.00 | 41 | 1011.7 |
| 20260507190512 | 51 | 203 | 5.2 | 14.8 | 0.00 | 0.00 | 0.00 | 41 | 1011.6 |
| 20260507190030 | 51 | 299 | 5.2 | 11.3 | 0.00 | 0.00 | 0.00 | 42 | 1011.5 |
| 20260507185514 | 51 | 236 | 1.7 | 10.4 | 0.00 | 0.00 | 0.00 | 47 | 1011.5 |
| 20260507185013 | 50 | 286 | 5.2 | 16.5 | 0.00 | 0.00 | 0.00 | 45 | 1011.5 |
| 20260507184532 | 51 | 252 | 7.8 | 16.5 | 0.00 | 0.00 | 0.00 | 44 | 1011.6 |
| 20260507184015 | 51 | 289 | 2.6 | 10.4 | 0.00 | 0.00 | 0.00 | 44 | 1011.5 |
| 20260507183514 | 51 | 4 | 4.3 | 12.2 | 0.00 | 0.00 | 0.00 | 43 | 1011.4 |
| 20260507183034 | 51 | 217 | 3.5 | 12.2 | 0.00 | 0.00 | 0.00 | 43 | 1011.5 |
| 20260507182515 | 51 | 301 | 2.6 | 14.8 | 0.00 | 0.00 | 0.00 | 44 | 1011.6 |
| 20260507182016 | 50 | 266 | 5.2 | 14.8 | 0.00 | 0.00 | 0.00 | 45 | 1011.7 |
| 20260507181529 | 51 | 302 | 1.7 | 11.3 | 0.00 | 0.00 | 0.00 | 45 | 1011.6 |
| 20260507181014 | 51 | 213 | 5.2 | 11.3 | 0.00 | 0.00 | 0.00 | 43 | 1011.6 |
| 20260507180515 | 51 | 281 | 3.5 | 12.2 | 0.00 | 0.00 | 0.00 | 43 | 1011.6 |